Wind_Speed
14 12 12 12 12 12 13 14 15 15 15 16 16 16 17 17 18 18 19 19 20 21 22 23 24 25 26 27 29 30 31 33 35 36 37 38 39 40 41 42 41 40
16 15 14 14 14 14 14 15 16 16 17 17 18 19 19 20 20 21 21 21 22 23 24 24 25 26 27 29 30 31 32 34 37 38 39 39 40 42 43 44 44 42
18 17 16 16 17 16 15 16 17 17 18 19 20 21 22 22 23 23 23 24 24 25 25 26 26 27 29 30 31 31 33 35 38 39 40 41 42 44 45 46 46 46
20 20 19 19 18 18 18 18 18 19 20 20 21 23 24 25 26 26 26 26 26 27 27 28 28 29 30 31 31 32 34 36 39 41 41 42 43 45 47 49 49 49
23 22 22 21 20 20 20 21 20 21 22 23 24 25 27 28 28 28 27 27 28 28 29 29 30 30 31 31 32 33 35 37 40 42 42 43 45 47 49 50 52 52
26 25 24 23 23 23 23 23 22 23 24 25 26 27 29 30 30 30 29 29 30 30 30 31 31 32 32 32 33 34 36 39 41 43 44 45 47 49 51 52 54 55
28 28 27 26 26 26 26 26 25 24 26 27 28 28 30 31 31 31 31 31 31 32 32 33 33 34 34 33 34 35 38 40 43 44 45 47 49 51 52 53 55 57
30 30 30 30 29 29 29 28 27 26 27 29 29 29 30 31 32 32 33 33 34 34 34 35 36 36 36 35 35 36 40 42 44 45 46 49 51 53 54 55 56 58
32 32 32 32 32 32 31 30 29 29 29 31 31 30 31 32 33 34 35 35 36 36 37 37 38 38 38 36 36 38 41 44 45 46 47 50 52 54 55 56 57 59
35 34 33 33 33 33 32 31 31 31 32 33 32 32 32 33 34 36 36 36 37 38 39 39 40 40 39 37 38 39 42 45 46 47 49 51 53 55 56 57 59 60
36 35 35 34 34 34 33 33 33 34 35 35 34 33 34 35 36 37 38 38 39 40 40 40 41 41 40 39 40 42 44 46 47 48 50 52 53 55 57 59 60 61
37 37 36 35 35 35 35 35 35 36 37 37 36 35 36 37 38 38 39 39 40 41 41 41 42 42 41 42 43 45 47 47 48 49 51 52 54 55 57 59 61 62
39 39 38 38 38 37 38 38 38 39 39 39 39 38 38 39 39 40 40 41 42 42 42 43 44 44 44 45 45 47 48 48 49 51 51 53 54 56 58 60 61 62
41 41 41 41 41 41 41 41 41 41 42 42 41 41 40 40 41 42 42 43 44 44 44 45 46 46 46 47 47 48 49 51 51 51 52 53 54 56 59 60 62 64
43 43 44 44 44 44 44 44 44 44 44 43 43 43 42 42 43 44 45 46 46 46 45 46 47 47 48 49 50 50 51 52 53 52 53 53 55 57 59 62 64 62
46 47 47 47 47 47 47 47 46 46 46 45 44 45 45 45 46 47 48 49 49 48 47 48 49 49 50 51 52 52 52 53 54 54 53 54 55 57 59 62 62 54
49 49 49 49 49 49 49 49 49 48 48 47 46 47 47 47 48 50 51 52 51 50 50 51 51 51 52 54 54 54 54 55 55 55 54 55 55 56 58 60 54 43
52 52 51 51 51 51 51 51 51 51 51 50 50 50 49 49 51 52 54 54 54 53 53 54 54 53 55 56 56 57 57 56 56 56 55 55 56 56 56 54 44 34
55 54 54 54 54 53 53 52 53 53 54 54 54 53 52 52 53 55 56 57 57 56 56 56 56 56 57 58 59 60 60 58 58 58 57 56 57 56 55 51 42 37
58 57 58 58 57 56 55 55 55 56 57 57 57 57 56 55 56 57 58 60 60 60 59 59 59 59 60 60 61 63 64 61 60 60 59 58 58 58 57 52 46 43
61 61 62 61 61 59 57 58 58 59 60 60 60 60 60 59 59 59 61 63 63 62 62 62 62 62 62 62 63 65 66 66 64 62 61 60 60 61 60 56 51 48
66 66 66 65 64 62 60 60 61 63 64 64 63 63 63 63 63 63 65 66 66 65 65 65 65 65 65 65 66 67 68 69 68 65 64 63 62 62 62 59 55 54
70 70 69 68 67 66 64 64 65 66 67 67 66 66 66 66 67 67 68 69 68 68 68 69 69 68 67 68 68 69 70 72 72 69 67 67 65 64 65 62 57 55
74 72 71 71 70 70 69 69 70 70 70 70 69 69 69 70 70 71 71 71 72 72 72 72 71 70 70 70 71 71 72 73 73 71 70 69 67 66 68 64 55 52
77 75 74 73 73 73 73 74 74 74 74 73 72 72 72 73 73 73 74 74 75 75 75 74 74 73 73 73 73 73 74 75 75 73 72 71 69 68 67 62 54 51
79 79 78 77 77 77 77 77 78 78 78 77 76 74 73 74 75 75 76 77 78 78 77 77 77 76 76 75 75 76 77 76 76 75 73 71 70 67 64 59 53 49
Wind_Direction
259 262 268 275 282 287 293 298 303 307 309 309 311 314 317 320 323 326 330 333 335 337 339 341 344 345 343 341 342 341 341 341 343 344 346 347 347 346 347 348 348 348
255 260 266 273 279 285 289 293 299 303 305 305 308 312 315 318 321 323 326 329 331 332 333 336 338 340 339 338 338 337 337 339 341 343 344 345 345 345 346 348 349 348
252 258 263 268 273 280 286 288 293 298 301 302 304 308 312 315 318 320 323 326 328 328 330 331 334 336 335 335 335 333 332 335 339 341 342 343 343 343 344 346 348 348
252 255 257 261 267 274 279 283 288 292 294 296 300 304 307 311 314 317 319 322 324 325 326 328 330 332 331 332 333 330 329 332 336 339 340 341 341 341 342 345 346 346
251 254 256 258 262 267 272 278 284 287 289 292 295 299 302 305 309 312 315 318 319 321 322 324 326 327 327 329 330 329 328 330 334 337 338 339 340 341 342 343 345 345
251 254 257 258 261 264 269 276 280 283 285 288 291 294 297 301 304 308 311 313 315 317 318 320 322 323 323 325 327 327 326 329 333 335 337 338 339 341 341 343 344 344
253 254 256 258 260 263 268 273 277 279 282 284 287 290 293 297 301 304 307 309 311 313 314 317 318 319 320 321 323 324 325 328 332 334 336 337 339 340 341 342 343 343
255 256 257 258 260 263 268 273 276 278 280 282 286 290 293 296 300 302 304 306 308 309 311 314 315 316 317 318 320 322 324 327 330 332 334 336 338 339 340 341 341 341
256 257 258 259 261 264 269 273 276 278 280 282 286 290 292 295 298 300 301 303 305 306 308 310 313 314 314 316 318 320 323 327 329 330 333 335 337 337 338 339 339 339
258 259 259 260 262 266 270 273 276 278 279 282 285 288 291 294 296 298 299 301 302 303 305 308 311 312 312 314 317 319 322 326 328 329 331 334 335 336 337 337 337 336
261 261 262 263 266 268 271 274 275 277 279 281 284 287 290 292 294 295 296 299 300 300 302 306 310 310 311 312 315 319 321 325 327 329 330 333 334 334 335 335 335 333
261 262 264 266 268 270 272 274 275 277 278 281 284 287 289 290 291 293 295 297 298 298 299 304 308 309 310 311 313 317 320 323 326 328 330 331 331 332 334 333 332 331
261 263 265 267 269 271 273 274 275 276 278 280 283 285 286 287 290 293 294 295 296 296 299 303 305 307 309 310 312 315 318 321 324 327 329 330 329 331 332 331 330 329
263 265 266 268 270 271 272 274 275 277 278 280 282 283 285 287 290 292 293 293 294 296 299 302 303 306 308 309 310 313 316 319 323 326 328 327 327 329 330 330 329 328
264 265 267 269 270 272 273 274 275 277 279 280 281 283 285 286 288 290 291 291 292 295 298 300 302 305 307 308 309 312 315 317 320 324 325 324 325 327 329 329 329 331
263 265 267 269 271 272 273 274 276 277 279 280 281 283 284 285 287 289 290 290 291 294 296 298 301 304 306 307 309 311 313 315 318 321 322 322 323 325 328 329 331 336
263 265 267 269 270 271 272 274 276 277 278 279 280 281 282 284 286 287 287 288 290 293 295 297 299 303 305 306 308 310 311 313 315 317 318 319 321 324 326 328 332 336
264 265 266 267 268 270 271 273 275 276 277 278 279 280 282 283 284 284 286 288 290 292 294 295 298 302 303 305 307 308 309 311 312 313 314 316 318 321 325 327 326 319
264 265 266 267 268 269 271 272 274 275 276 277 278 279 280 281 282 284 286 288 290 291 293 295 299 301 302 303 305 306 307 308 309 310 311 313 316 317 320 322 316 301
265 265 266 267 268 269 271 272 273 274 276 277 278 279 280 281 282 284 286 287 289 291 293 296 298 299 300 302 304 304 305 306 306 307 309 311 313 314 315 318 316 304
264 265 266 266 267 269 270 271 273 274 275 276 277 278 280 281 283 284 285 287 288 291 293 295 296 297 299 300 302 302 303 304 303 305 307 308 310 311 311 315 317 310
263 263 264 266 267 268 269 270 272 273 274 276 277 278 280 281 283 284 285 286 289 290 292 293 294 296 297 299 300 301 302 302 301 303 306 307 308 309 310 313 314 310
262 262 264 266 267 269 270 270 270 272 273 275 277 278 280 281 283 284 285 287 289 290 291 292 293 294 296 298 299 300 300 299 300 303 305 305 306 307 309 311 312 307
262 263 265 266 268 269 270 270 271 272 273 274 276 278 279 281 282 284 286 287 288 289 290 291 292 293 295 297 297 297 297 297 299 302 303 303 306 307 308 309 310 307
263 264 265 266 267 269 270 271 272 272 273 274 275 276 278 280 281 283 285 286 287 288 289 290 292 292 294 295 295 295 295 296 298 300 301 302 305 307 307 308 308 306
264 265 265 266 267 268 269 271 271 272 273 274 274 276 277 279 281 282 284 285 286 287 289 290 291 291 292 293 293 293 294 295 296 297 300 302 305 307 307 306 306 306
Height
10976 10976 10977 10977 10977 10977 10976 10975 10975 10975 10975 10974 10974 10973 10972 10971 10971 10970 10969 10969 10968 10967 10966 10965 10964 10963 10962 10960 10959 10958 10957 10955 10954 10952 10951 10949 10947 10945 10944 10942 10941 10938
10974 10974 10975 10975 10975 10975 10974 10974 10973 10973 10973 10972 10972 10971 10971 10970 10969 10968 10967 10967 10966 10965 10964 10964 10963 10961 10960 10958 10957 10956 10954 10953 10952 10951 10949 10947 10945 10943 10941 10940 10939 10937
10971 10972 10972 10973 10973 10973 10972 10972 10972 10971 10971 10970 10970 10969 10969 10968 10967 10966 10966 10965 10964 10963 10962 10961 10960 10959 10958 10956 10955 10954 10952 10950 10950 10949 10947 10945 10943 10941 10939 10937 10935 10934
10968 10969 10969 10970 10970 10970 10970 10970 10970 10969 10969 10968 10968 10967 10967 10966 10966 10965 10964 10963 10962 10961 10960 10959 10958 10957 10955 10954 10953 10951 10949 10948 10948 10947 10945 10943 10941 10938 10936 10934 10932 10930
10965 10965 10966 10967 10967 10967 10967 10967 10967 10967 10966 10966 10966 10965 10964 10964 10964 10963 10962 10961 10959 10958 10958 10957 10956 10955 10953 10952 10951 10949 10947 10946 10946 10945 10943 10941 10939 10936 10933 10931 10928 10926
10962 10962 10963 10963 10964 10964 10964 10964 10965 10964 10964 10963 10963 10963 10962 10961 10961 10960 10960 10959 10957 10956 10955 10954 10954 10953 10951 10950 10948 10947 10945 10944 10943 10942 10940 10938 10936 10933 10931 10928 10925 10922
10959 10959 10960 10960 10960 10960 10961 10961 10962 10962 10961 10961 10960 10960 10959 10959 10958 10958 10957 10956 10955 10954 10953 10952 10952 10951 10949 10948 10946 10944 10943 10942 10941 10939 10937 10934 10932 10930 10927 10924 10921 10918
10956 10956 10956 10956 10957 10957 10957 10958 10959 10959 10958 10957 10957 10957 10957 10956 10955 10955 10954 10953 10952 10951 10950 10949 10949 10948 10947 10946 10944 10942 10941 10940 10938 10936 10934 10932 10929 10926 10924 10921 10918 10915
10952 10952 10953 10953 10953 10953 10954 10955 10955 10955 10955 10954 10954 10954 10954 10953 10953 10952 10951 10950 10949 10948 10947 10946 10946 10945 10944 10943 10942 10940 10939 10937 10936 10934 10932 10930 10927 10923 10920 10917 10914 10911
10949 10949 10949 10949 10949 10950 10951 10951 10952 10951 10951 10950 10951 10951 10950 10950 10949 10948 10948 10947 10946 10945 10943 10943 10942 10942 10941 10940 10939 10938 10936 10935 10933 10931 10929 10928 10924 10921 10917 10914 10911 10907
10945 10945 10945 10946 10946 10946 10947 10948 10948 10947 10947 10946 10947 10947 10947 10947 10946 10945 10944 10944 10943 10941 10940 10939 10939 10938 10938 10937 10936 10935 10933 10932 10931 10929 10927 10924 10922 10918 10914 10911 10907 10904
10940 10941 10941 10942 10942 10942 10943 10943 10943 10943 10942 10942 10943 10944 10944 10943 10942 10941 10940 10940 10939 10937 10936 10936 10935 10935 10935 10934 10933 10932 10930 10929 10928 10926 10924 10921 10918 10915 10912 10908 10903 10900
10936 10937 10937 10937 10937 10937 10938 10938 10939 10939 10938 10939 10939 10939 10940 10939 10938 10937 10937 10935 10934 10933 10933 10932 10931 10931 10931 10930 10929 10928 10926 10926 10925 10923 10920 10917 10914 10912 10909 10905 10900 10896
10932 10932 10932 10932 10932 10932 10933 10933 10934 10934 10934 10935 10935 10935 10935 10935 10934 10933 10932 10931 10930 10929 10929 10928 10927 10927 10927 10926 10925 10924 10923 10922 10921 10919 10917 10913 10910 10908 10905 10901 10897 10892
10927 10927 10927 10927 10927 10927 10927 10928 10929 10929 10930 10930 10930 10930 10930 10930 10929 10929 10927 10926 10925 10925 10925 10924 10923 10924 10923 10922 10921 10921 10919 10917 10916 10915 10913 10909 10906 10904 10902 10897 10892 10888
10922 10922 10922 10922 10922 10922 10922 10923 10924 10924 10925 10925 10925 10925 10925 10925 10925 10924 10923 10921 10921 10921 10921 10920 10919 10920 10919 10918 10917 10917 10916 10913 10912 10911 10909 10905 10903 10901 10898 10893 10888 10883
10917 10917 10917 10917 10917 10917 10917 10917 10918 10919 10919 10920 10920 10920 10920 10920 10920 10919 10917 10916 10916 10917 10917 10915 10915 10916 10915 10913 10913 10912 10911 10910 10908 10906 10904 10902 10899 10897 10894 10889 10884 10881
10911 10911 10911 10911 10911 10911 10912 10912 10913 10913 10913 10913 10914 10914 10915 10916 10914 10913 10911 10911 10911 10911 10911 10910 10911 10911 10910 10909 10908 10907 10906 10905 10903 10901 10900 10898 10895 10894 10891 10886 10882 10879
10904 10905 10905 10905 10905 10906 10907 10908 10908 10907 10907 10907 10908 10908 10910 10910 10909 10907 10906 10905 10905 10905 10905 10905 10906 10906 10905 10904 10903 10902 10901 10901 10898 10895 10894 10893 10892 10890 10887 10883 10880 10877
10898 10898 10897 10897 10898 10900 10902 10902 10902 10902 10901 10901 10901 10901 10903 10904 10903 10902 10901 10899 10899 10899 10900 10900 10900 10900 10899 10898 10898 10896 10894 10894 10893 10890 10889 10889 10887 10885 10882 10880 10879 10877
10890 10890 10890 10890 10891 10894 10897 10897 10896 10895 10894 10894 10895 10896 10896 10897 10897 10897 10895 10893 10893 10894 10895 10894 10894 10893 10893 10892 10892 10890 10888 10887 10886 10884 10884 10883 10882 10879 10877 10876 10875 10873
10882 10882 10882 10883 10884 10888 10891 10891 10890 10888 10887 10888 10889 10890 10890 10890 10891 10890 10888 10887 10888 10889 10889 10888 10887 10887 10887 10886 10885 10884 10882 10880 10878 10878 10878 10877 10875 10873 10871 10871 10869 10866
10874 10875 10876 10877 10878 10881 10884 10884 10883 10882 10882 10882 10883 10883 10884 10884 10883 10883 10882 10882 10883 10883 10882 10881 10880 10880 10880 10879 10878 10877 10875 10872 10870 10872 10872 10869 10868 10866 10863 10863 10863 10859
10865 10868 10871 10872 10872 10874 10875 10875 10875 10876 10876 10876 10877 10878 10878 10877 10876 10876 10876 10876 10875 10875 10874 10873 10872 10872 10872 10871 10870 10869 10867 10865 10864 10865 10864 10862 10861 10859 10856 10854 10855 10852
10859 10862 10864 10865 10865 10866 10866 10867 10867 10867 10868 10869 10871 10873 10872 10870 10870 10870 10869 10868 10867 10866 10866 10865 10865 10864 10864 10863 10862 10860 10858 10857 10856 10857 10856 10854 10853 10852 10849 10846 10846 10845
10852 10853 10856 10858 10859 10859 10859 10859 10858 10858 10859 10861 10863 10866 10866 10865 10864 10863 10862 10860 10858 10857 10857 10857 10856 10855 10855 10855 10854 10851 10850 10849 10848 10849 10849 10847 10846 10844 10841 10839 10839 10837